| time (UTC) | temp F | wind direction | speed knots | gust knots | rain 1hr in | rain 24hr in | rain mn in | humidity % | barometer mb |
| 20260508105857 | 58 | 48 | 6.1 | 9.6 | 0.00 | 0.00 | 0.00 | 38 | 1024.4 |
| 20260508104855 | 58 | 62 | 6.1 | 11.3 | 0.00 | 0.00 | 0.00 | 37 | 1024.4 |
| 20260508103853 | 58 | 58 | 6.1 | 13.9 | 0.00 | 0.00 | 0.00 | 37 | 1024.4 |
| 20260508102851 | 58 | 50 | 5.2 | 12.2 | 0.00 | 0.00 | 0.00 | 39 | 1024.4 |
| 20260508101849 | 58 | 50 | 6.1 | 13.9 | 0.00 | 0.00 | 0.00 | 38 | 1024.4 |
| 20260508100927 | 58 | 53 | 5.2 | 10.4 | 0.00 | 0.00 | 0.00 | 39 | 1024.4 |
| 20260508095845 | 58 | 61 | 5.2 | 9.6 | 0.00 | 0.00 | 0.00 | 37 | 1024.6 |
| 20260508094843 | 58 | 50 | 6.1 | 10.4 | 0.00 | 0.00 | 0.00 | 36 | 1024.5 |
| 20260508093841 | 58 | 56 | 7.0 | 12.2 | 0.00 | 0.00 | 0.00 | 35 | 1024.6 |
| 20260508092839 | 58 | 55 | 6.1 | 12.2 | 0.00 | 0.00 | 0.00 | 34 | 1024.6 |
| 20260508091837 | 58 | 73 | 7.0 | 10.4 | 0.00 | 0.00 | 0.00 | 34 | 1024.6 |
| 20260508090835 | 58 | 69 | 6.1 | 11.3 | 0.00 | 0.00 | 0.00 | 34 | 1024.7 |
| 20260508085832 | 58 | 61 | 8.7 | 13.9 | 0.00 | 0.00 | 0.00 | 35 | 1024.6 |
| 20260508084831 | 58 | 61 | 7.0 | 12.2 | 0.00 | 0.00 | 0.00 | 36 | 1024.7 |
| 20260508083908 | 58 | 55 | 5.2 | 7.8 | 0.00 | 0.00 | 0.00 | 35 | 1024.8 |
| 20260508082828 | 58 | 55 | 8.7 | 13.9 | 0.00 | 0.00 | 0.00 | 35 | 1024.8 |
| 20260508081905 | 58 | 58 | 7.0 | 12.2 | 0.00 | 0.00 | 0.00 | 36 | 1024.6 |
| 20260508080822 | 58 | 63 | 7.8 | 12.2 | 0.00 | 0.00 | 0.00 | 38 | 1024.6 |
| 20260508075822 | 57 | 55 | 7.8 | 12.2 | 0.00 | 0.00 | 0.00 | 39 | 1024.6 |
| 20260508074818 | 57 | 66 | 7.8 | 16.5 | 0.00 | 0.00 | 0.00 | 41 | 1024.5 |
| 20260508073817 | 56 | 52 | 7.0 | 12.2 | 0.00 | 0.00 | 0.00 | 44 | 1024.4 |
| 20260508072815 | 56 | 55 | 7.0 | 13.0 | 0.00 | 0.00 | 0.00 | 46 | 1024.3 |
| 20260508071813 | 55 | 59 | 7.8 | 13.0 | 0.00 | 0.00 | 0.00 | 48 | 1024.3 |
| 20260508070810 | 55 | 57 | 8.7 | 14.8 | 0.00 | 0.00 | 0.00 | 49 | 1024.3 |
| 20260508065810 | 54 | 54 | 7.0 | 12.2 | 0.00 | 0.00 | 0.00 | 51 | 1024.2 |
| 20260508064806 | 54 | 53 | 7.8 | 14.8 | 0.00 | 0.00 | 0.00 | 51 | 1024.1 |
| 20260508063805 | 53 | 63 | 6.1 | 11.3 | 0.00 | 0.00 | 0.00 | 53 | 1024.0 |
| 20260508062802 | 53 | 51 | 7.8 | 12.2 | 0.00 | 0.00 | 0.00 | 53 | 1023.9 |
| 20260508061801 | 53 | 55 | 9.6 | 14.8 | 0.00 | 0.00 | 0.00 | 54 | 1023.8 |
| 20260508060759 | 53 | 62 | 5.2 | 9.6 | 0.00 | 0.00 | 0.00 | 57 | 1023.8 |
| 20260508055756 | 51 | 56 | 7.0 | 10.4 | 0.00 | 0.00 | 0.00 | 59 | 1023.7 |
| 20260508054755 | 51 | 59 | 6.1 | 13.0 | 0.00 | 0.00 | 0.00 | 61 | 1023.6 |
| 20260508053753 | 50 | 54 | 6.1 | 10.4 | 0.00 | 0.00 | 0.00 | 63 | 1023.5 |
| 20260508052751 | 49 | 54 | 6.1 | 13.0 | 0.00 | 0.00 | 0.00 | 65 | 1023.5 |
| 20260508051749 | 49 | 55 | 7.0 | 12.2 | 0.00 | 0.00 | 0.00 | 66 | 1023.4 |
| 20260508050807 | 48 | 57 | 5.2 | 10.4 | 0.00 | 0.00 | 0.00 | 69 | 1023.3 |
| 20260508045745 | 47 | 55 | 6.1 | 9.6 | 0.00 | 0.00 | 0.00 | 70 | 1023.1 |
| 20260508044744 | 46 | 57 | 5.2 | 8.7 | 0.00 | 0.00 | 0.00 | 71 | 1023.0 |
| 20260508043742 | 46 | 54 | 5.2 | 10.4 | 0.00 | 0.00 | 0.00 | 71 | 1023.0 |
| 20260508042738 | 45 | 54 | 5.2 | 12.2 | 0.00 | 0.00 | 0.00 | 71 | 1022.9 |
| 20260508041737 | 44 | 55 | 5.2 | 10.4 | 0.00 | 0.00 | 0.00 | 72 | 1022.7 |
| 20260508040737 | 44 | 56 | 4.3 | 9.6 | 0.00 | 0.00 | 0.00 | 72 | 1022.6 |
| 20260508035754 | 43 | 57 | 3.5 | 7.8 | 0.00 | 0.00 | 0.00 | 72 | 1022.6 |
| 20260508034731 | 42 | 61 | 3.5 | 8.7 | 0.00 | 0.00 | 0.00 | 73 | 1022.4 |
| 20260508033728 | 41 | 55 | 3.5 | 6.1 | 0.00 | 0.00 | 0.00 | 73 | 1022.3 |
| 20260508032728 | 40 | 54 | 2.6 | 6.1 | 0.00 | 0.00 | 0.00 | 73 | 1022.3 |
| 20260508031744 | 40 | 63 | 2.6 | 5.2 | 0.00 | 0.00 | 0.00 | 73 | 1022.2 |
| 20260508030723 | 39 | 56 | 1.7 | 5.2 | 0.00 | 0.00 | 0.00 | 73 | 1022.1 |
| 20260508025721 | 39 | 64 | 2.6 | 5.2 | 0.00 | 0.00 | 0.00 | 73 | 1022.0 |
| 20260508024719 | 39 | 65 | 1.7 | 4.3 | 0.00 | 0.00 | 0.00 | 73 | 1021.9 |
| 20260508023717 | 39 | 61 | 1.7 | 3.5 | 0.00 | 0.00 | 0.00 | 72 | 1021.9 |
| 20260508022735 | 39 | 45 | 1.7 | 3.5 | 0.00 | 0.00 | 0.00 | 72 | 1021.8 |
| 20260508021713 | 39 | 45 | 1.7 | 3.5 | 0.00 | 0.00 | 0.00 | 72 | 1021.6 |
| 20260508020731 | 39 | 67 | 1.7 | 5.2 | 0.00 | 0.00 | 0.00 | 71 | 1021.5 |
| 20260508015709 | 39 | 62 | 2.6 | 4.3 | 0.00 | 0.00 | 0.00 | 70 | 1021.5 |
| 20260508014707 | 39 | 62 | 3.5 | 5.2 | 0.00 | 0.00 | 0.00 | 70 | 1021.4 |
| 20260508013705 | 40 | 61 | 3.5 | 6.1 | 0.00 | 0.00 | 0.00 | 69 | 1021.3 |
| 20260508012704 | 40 | 64 | 1.7 | 5.2 | 0.00 | 0.00 | 0.00 | 68 | 1021.3 |
| 20260508011701 | 40 | 55 | 2.6 | 5.2 | 0.00 | 0.00 | 0.00 | 68 | 1021.1 |
| 20260508010700 | 40 | 52 | 1.7 | 5.2 | 0.00 | 0.00 | 0.00 | 67 | 1021.1 |
| 20260508005657 | 40 | 58 | 1.7 | 5.2 | 0.00 | 0.00 | 0.00 | 65 | 1021.0 |
| 20260508004655 | 40 | 58 | 1.7 | 4.3 | 0.00 | 0.00 | 0.00 | 64 | 1020.9 |
| 20260508003713 | 40 | 45 | 1.7 | 4.3 | 0.00 | 0.00 | 0.00 | 63 | 1020.8 |
| 20260508002651 | 40 | 55 | 1.7 | 3.5 | 0.00 | 0.00 | 0.00 | 62 | 1020.7 |
| 20260508001649 | 40 | 49 | 1.7 | 6.1 | 0.00 | 0.00 | 0.00 | 61 | 1020.6 |
| 20260508000646 | 40 | 49 | 1.7 | 6.1 | 0.00 | 0.00 | 0.00 | 61 | 1020.6 |
| 20260507235645 | 41 | 53 | 1.7 | 5.2 | 0.00 | 0.00 | 0.00 | 60 | 1020.5 |
| 20260507234643 | 41 | 59 | 1.7 | 5.2 | 0.00 | 0.00 | 0.00 | 59 | 1020.4 |
| 20260507233641 | 41 | 53 | 2.6 | 6.1 | 0.00 | 0.00 | 0.00 | 58 | 1020.3 |
| 20260507232639 | 41 | 51 | 1.7 | 6.1 | 0.00 | 0.00 | 0.00 | 57 | 1020.1 |
| 20260507231637 | 41 | 52 | 1.7 | 6.1 | 0.00 | 0.00 | 0.00 | 56 | 1020.0 |
| 20260507230635 | 41 | 54 | 2.6 | 6.1 | 0.00 | 0.00 | 0.00 | 56 | 1019.9 |
| 20260507225632 | 41 | 54 | 1.7 | 5.2 | 0.00 | 0.00 | 0.00 | 56 | 1019.8 |
| 20260507224651 | 41 | 60 | 1.7 | 5.2 | 0.00 | 0.00 | 0.00 | 56 | 1019.7 |
| 20260507223631 | 42 | 53 | 1.7 | 5.2 | 0.00 | 0.00 | 0.00 | 56 | 1019.6 |
| 20260507222647 | 42 | 55 | 1.7 | 6.1 | 0.00 | 0.00 | 0.00 | 56 | 1019.5 |
| 20260507221625 | 42 | 55 | 2.6 | 6.1 | 0.00 | 0.00 | 0.00 | 56 | 1019.5 |
| 20260507220623 | 42 | 56 | 1.7 | 5.2 | 0.00 | 0.00 | 0.00 | 57 | 1019.4 |
| 20260507215621 | 42 | 54 | 1.7 | 5.2 | 0.00 | 0.00 | 0.00 | 57 | 1019.3 |
| 20260507214619 | 42 | 62 | 1.7 | 5.2 | 0.00 | 0.00 | 0.00 | 57 | 1019.1 |
| 20260507213638 | 42 | 56 | 1.7 | 7.0 | 0.00 | 0.00 | 0.00 | 58 | 1019.0 |
| 20260507212635 | 42 | 51 | 1.7 | 4.3 | 0.00 | 0.00 | 0.00 | 58 | 1018.9 |
| 20260507211613 | 43 | 45 | 1.7 | 5.2 | 0.00 | 0.00 | 0.00 | 58 | 1018.8 |
| 20260507210651 | 43 | 45 | 1.7 | 4.3 | 0.00 | 0.00 | 0.00 | 58 | 1018.7 |
| 20260507205609 | 43 | 57 | 3.5 | 9.6 | 0.00 | 0.00 | 0.00 | 57 | 1018.6 |
| 20260507204608 | 43 | 58 | 3.5 | 7.8 | 0.00 | 0.00 | 0.00 | 57 | 1018.6 |
| 20260507203605 | 44 | 57 | 3.5 | 7.8 | 0.00 | 0.00 | 0.00 | 57 | 1018.4 |
| 20260507202605 | 43 | 55 | 3.5 | 7.8 | 0.00 | 0.00 | 0.00 | 58 | 1018.4 |
| 20260507201600 | 44 | 56 | 1.7 | 6.1 | 0.00 | 0.00 | 0.00 | 59 | 1018.2 |
| 20260507200559 | 44 | 36 | 1.7 | 5.2 | 0.00 | 0.00 | 0.00 | 59 | 1018.0 |
| 20260507195557 | 44 | 24 | 1.7 | 4.3 | 0.00 | 0.00 | 0.00 | 59 | 1017.8 |
| 20260507194555 | 45 | 21 | 1.7 | 5.2 | 0.00 | 0.00 | 0.00 | 59 | 1017.7 |
| 20260507193552 | 45 | 17 | 1.7 | 4.3 | 0.00 | 0.00 | 0.00 | 58 | 1017.6 |
| 20260507192551 | 46 | 22 | 2.6 | 5.2 | 0.00 | 0.00 | 0.00 | 58 | 1017.5 |
| 20260507191549 | 46 | 4 | 1.7 | 6.1 | 0.00 | 0.00 | 0.00 | 57 | 1017.4 |
| 20260507190607 | 47 | 25 | 1.7 | 5.2 | 0.00 | 0.00 | 0.00 | 55 | 1017.3 |
| 20260507185545 | 48 | 353 | 1.7 | 6.1 | 0.00 | 0.00 | 0.00 | 54 | 1017.2 |
| 20260507184543 | 49 | 348 | 2.6 | 7.8 | 0.00 | 0.00 | 0.00 | 52 | 1017.0 |
| 20260507183621 | 50 | 3 | 1.7 | 5.2 | 0.00 | 0.00 | 0.00 | 50 | 1016.9 |
| 20260507182559 | 52 | 5 | 1.7 | 4.3 | 0.00 | 0.00 | 0.00 | 46 | 1016.7 |
| 20260507181537 | 53 | 10 | 2.6 | 7.0 | 0.00 | 0.00 | 0.00 | 44 | 1016.5 |
| 20260507180535 | 54 | 37 | 1.7 | 8.7 | 0.00 | 0.00 | 0.00 | 41 | 1016.5 |
| 20260507175554 | 54 | 52 | 2.6 | 6.1 | 0.00 | 0.00 | 0.00 | 36 | 1016.4 |
| 20260507174531 | 54 | 44 | 3.5 | 10.4 | 0.00 | 0.00 | 0.00 | 35 | 1016.2 |
| 20260507173529 | 55 | 47 | 6.1 | 12.2 | 0.00 | 0.00 | 0.00 | 33 | 1016.1 |
| 20260507172527 | 55 | 49 | 6.1 | 12.2 | 0.00 | 0.00 | 0.00 | 34 | 1015.9 |
| 20260507171525 | 56 | 51 | 5.2 | 12.2 | 0.00 | 0.00 | 0.00 | 34 | 1015.8 |
| 20260507170523 | 56 | 45 | 4.3 | 7.8 | 0.00 | 0.00 | 0.00 | 34 | 1015.8 |
| 20260507165521 | 56 | 51 | 5.2 | 12.2 | 0.00 | 0.00 | 0.00 | 34 | 1015.7 |
| 20260507164539 | 57 | 49 | 5.2 | 12.2 | 0.00 | 0.00 | 0.00 | 34 | 1015.6 |
| 20260507163517 | 58 | 48 | 5.2 | 12.2 | 0.00 | 0.00 | 0.00 | 34 | 1015.6 |
| 20260507162516 | 58 | 49 | 5.2 | 13.0 | 0.00 | 0.00 | 0.00 | 35 | 1015.4 |
| 20260507161513 | 58 | 48 | 5.2 | 12.2 | 0.00 | 0.00 | 0.00 | 35 | 1015.4 |
| 20260507160511 | 58 | 47 | 6.1 | 11.3 | 0.00 | 0.00 | 0.00 | 34 | 1015.3 |
| 20260507155510 | 59 | 47 | 6.1 | 13.9 | 0.00 | 0.00 | 0.00 | 35 | 1015.1 |
| 20260507154527 | 59 | 51 | 5.2 | 10.4 | 0.00 | 0.00 | 0.00 | 35 | 1015.0 |
| 20260507153504 | 58 | 54 | 6.1 | 12.2 | 0.00 | 0.00 | 0.00 | 36 | 1014.9 |
| 20260507152531 | 58 | 29 | 3.5 | 7.8 | 0.00 | 0.00 | 0.00 | 36 | 1014.9 |
| 20260507151501 | 58 | 41 | 5.2 | 12.2 | 0.00 | 0.00 | 0.00 | 36 | 1014.9 |
| 20260507150500 | 58 | 53 | 5.2 | 9.6 | 0.00 | 0.00 | 0.00 | 36 | 1014.8 |
| 20260507145457 | 59 | 55 | 3.5 | 9.6 | 0.00 | 0.00 | 0.00 | 37 | 1014.7 |
| 20260507144455 | 58 | 320 | 2.6 | 6.1 | 0.00 | 0.00 | 0.00 | 37 | 1014.7 |
| 20260507143513 | 59 | 181 | 1.7 | 6.1 | 0.00 | 0.00 | 0.00 | 40 | 1014.6 |
| 20260507142451 | 60 | 107 | 3.5 | 7.0 | 0.00 | 0.00 | 0.00 | 42 | 1014.6 |
| 20260507141509 | 59 | 316 | 2.6 | 7.8 | 0.00 | 0.00 | 0.00 | 31 | 1014.5 |
| 20260507140447 | 60 | 55 | 2.6 | 5.2 | 0.00 | 0.00 | 0.00 | 41 | 1014.4 |
| 20260507135446 | 59 | 240 | 2.6 | 6.1 | 0.00 | 0.00 | 0.00 | 44 | 1014.3 |
| 20260507134443 | 59 | 239 | 3.5 | 7.8 | 0.00 | 0.00 | 0.00 | 44 | 1014.3 |
| 20260507133441 | 60 | 174 | 2.6 | 5.2 | 0.00 | 0.00 | 0.00 | 45 | 1014.4 |
| 20260507132458 | 59 | 226 | 2.6 | 6.1 | 0.00 | 0.00 | 0.00 | 45 | 1014.3 |
| 20260507131437 | 59 | 221 | 3.5 | 6.1 | 0.00 | 0.00 | 0.00 | 47 | 1014.4 |
| 20260507130455 | 59 | 225 | 2.6 | 7.0 | 0.00 | 0.00 | 0.00 | 45 | 1014.3 |
| 20260507125434 | 59 | 207 | 3.5 | 6.1 | 0.00 | 0.00 | 0.00 | 46 | 1014.2 |
| 20260507124451 | 59 | 225 | 1.7 | 6.1 | 0.00 | 0.00 | 0.00 | 48 | 1014.2 |
| 20260507123430 | 59 | 209 | 2.6 | 6.1 | 0.00 | 0.00 | 0.00 | 48 | 1014.2 |
| 20260507122427 | 59 | 149 | 2.6 | 7.0 | 0.00 | 0.00 | 0.00 | 48 | 1014.3 |
| 20260507121426 | 59 | 161 | 1.7 | 5.2 | 0.00 | 0.00 | 0.00 | 48 | 1014.3 |
| 20260507120423 | 59 | 90 | 1.7 | 4.3 | 0.00 | 0.00 | 0.00 | 45 | 1014.2 |
| 20260507115421 | 58 | 140 | 1.7 | 6.1 | 0.00 | 0.00 | 0.00 | 46 | 1014.1 |
| 20260507114500 | 58 | 124 | 3.5 | 6.1 | 0.00 | 0.00 | 0.00 | 44 | 1014.0 |
| 20260507113417 | 59 | 147 | 2.6 | 6.1 | 0.00 | 0.00 | 0.00 | 45 | 1014.0 |
| 20260507112414 | 59 | 195 | 0.9 | 3.5 | 0.00 | 0.00 | 0.00 | 46 | 1014.0 |
| 20260507111413 | 58 | 211 | 3.5 | 7.8 | 0.00 | 0.00 | 0.00 | 45 | 1014.0 |
| 20260507110411 | 59 | 174 | 3.5 | 13.9 | 0.00 | 0.00 | 0.00 | 44 | 1013.9 |